| time (UTC) | temp C | wind direction | speed KPH | gust KPH | rain 1hr cm | rain 24hr cm | rain mn cm | humidity % | barometer mb |
| 20260504214059 | 20 | 230 | 4.8 | 14.5 | 0.00 | 0.00 | 0.00 | 47 | 1011.7 |
| 20260504213554 | 20 | 263 | 0.0 | 9.7 | 0.00 | 0.00 | 0.00 | 49 | 1011.8 |
| 20260504213032 | 20 | 350 | 1.6 | 9.7 | 0.00 | 0.00 | 0.00 | 50 | 1011.9 |
| 20260504212524 | 20 | 146 | 1.6 | 9.7 | 0.00 | 0.00 | 0.00 | 50 | 1011.9 |
| 20260504212018 | 20 | 244 | 4.8 | 11.3 | 0.00 | 0.00 | 0.00 | 49 | 1011.9 |
| 20260504211527 | 20 | 323 | 3.2 | 6.4 | 0.00 | 0.00 | 0.00 | 49 | 1011.9 |
| 20260504211022 | 20 | 87 | 1.6 | 6.4 | 0.00 | 0.00 | 0.00 | 49 | 1011.9 |
| 20260504210516 | 20 | 124 | 0.0 | 4.8 | 0.00 | 0.00 | 0.00 | 49 | 1012.0 |
| 20260504210027 | 20 | 308 | 0.0 | 9.7 | 0.00 | 0.00 | 0.00 | 49 | 1012.0 |
| 20260504205521 | 20 | 56 | 3.2 | 16.1 | 0.00 | 0.00 | 0.00 | 49 | 1012.0 |
| 20260504205012 | 20 | 239 | 1.6 | 16.1 | 0.00 | 0.00 | 0.00 | 48 | 1012.1 |
| 20260504204526 | 20 | 242 | 1.6 | 12.9 | 0.00 | 0.00 | 0.00 | 48 | 1012.1 |
| 20260504204021 | 20 | 89 | 1.6 | 12.9 | 0.00 | 0.00 | 0.00 | 47 | 1012.1 |
| 20260504203516 | 20 | 247 | 3.2 | 14.5 | 0.00 | 0.00 | 0.00 | 47 | 1012.0 |
| 20260504203055 | 20 | 37 | 1.6 | 14.5 | 0.00 | 0.00 | 0.00 | 47 | 1012.0 |
| 20260504202543 | 20 | 128 | 4.8 | 12.9 | 0.00 | 0.00 | 0.00 | 46 | 1012.1 |
| 20260504202041 | 20 | 57 | 3.2 | 11.3 | 0.00 | 0.00 | 0.00 | 46 | 1012.1 |
| 20260504201550 | 21 | 87 | 4.8 | 19.3 | 0.00 | 0.00 | 0.00 | 45 | 1012.0 |
| 20260504201045 | 21 | 280 | 8.0 | 22.5 | 0.00 | 0.00 | 0.00 | 45 | 1012.2 |
| 20260504200540 | 21 | 5 | 3.2 | 22.5 | 0.00 | 0.00 | 0.00 | 44 | 1012.3 |
| 20260504200100 | 21 | 261 | 12.9 | 20.9 | 0.00 | 0.00 | 0.00 | 43 | 1012.3 |
| 20260504195548 | 21 | 133 | 4.8 | 17.7 | 0.00 | 0.00 | 0.00 | 44 | 1012.2 |
| 20260504195041 | 21 | 96 | 3.2 | 22.5 | 0.00 | 0.00 | 0.00 | 43 | 1012.2 |
| 20260504194603 | 21 | 288 | 8.0 | 19.3 | 0.00 | 0.00 | 0.00 | 42 | 1012.2 |
| 20260504194047 | 21 | 355 | 6.4 | 12.9 | 0.00 | 0.00 | 0.00 | 41 | 1012.0 |
| 20260504193541 | 21 | 5 | 4.8 | 16.1 | 0.00 | 0.00 | 0.00 | 42 | 1012.1 |
| 20260504193055 | 22 | 21 | 6.4 | 20.9 | 0.00 | 0.00 | 0.00 | 42 | 1012.1 |
| 20260504192544 | 22 | 49 | 6.4 | 20.9 | 0.00 | 0.00 | 0.00 | 43 | 1012.1 |
| 20260504192037 | 22 | 279 | 6.4 | 16.1 | 0.00 | 0.00 | 0.00 | 42 | 1012.0 |
| 20260504191509 | 21 | 70 | 4.8 | 32.2 | 0.00 | 0.00 | 0.00 | 45 | 1012.0 |
| 20260504191102 | 21 | 126 | 8.0 | 32.2 | 0.00 | 0.00 | 0.00 | 44 | 1011.9 |
| 20260504190556 | 21 | 238 | 3.2 | 16.1 | 0.00 | 0.00 | 0.00 | 44 | 1012.2 |
| 20260504190026 | 21 | 56 | 4.8 | 16.1 | 0.00 | 0.00 | 0.00 | 44 | 1012.4 |
| 20260504185516 | 21 | 42 | 6.4 | 20.9 | 0.00 | 0.00 | 0.00 | 45 | 1012.5 |
| 20260504185010 | 21 | 338 | 4.8 | 16.1 | 0.00 | 0.00 | 0.00 | 44 | 1012.5 |
| 20260504184544 | 21 | 38 | 6.4 | 17.7 | 0.00 | 0.00 | 0.00 | 44 | 1012.5 |
| 20260504184038 | 21 | 17 | 3.2 | 17.7 | 0.00 | 0.00 | 0.00 | 44 | 1012.5 |
| 20260504183531 | 20 | 186 | 6.4 | 17.7 | 0.00 | 0.00 | 0.00 | 45 | 1012.6 |
| 20260504183041 | 20 | 360 | 8.0 | 17.7 | 0.00 | 0.00 | 0.00 | 47 | 1012.6 |
| 20260504182532 | 20 | 173 | 3.2 | 17.7 | 0.00 | 0.00 | 0.00 | 47 | 1012.9 |
| 20260504182026 | 20 | 21 | 4.8 | 16.1 | 0.00 | 0.00 | 0.00 | 50 | 1013.0 |
| 20260504181603 | 20 | 170 | 6.4 | 20.9 | 0.00 | 0.00 | 0.00 | 48 | 1013.1 |
| 20260504181053 | 20 | 37 | 4.8 | 20.9 | 0.00 | 0.00 | 0.00 | 48 | 1013.2 |
| 20260504180546 | 20 | 38 | 6.4 | 22.5 | 0.00 | 0.00 | 0.00 | 49 | 1013.2 |
| 20260504180056 | 19 | 53 | 9.7 | 22.5 | 0.00 | 0.00 | 0.00 | 49 | 1013.1 |
| 20260504175546 | 19 | 338 | 4.8 | 19.3 | 0.00 | 0.00 | 0.00 | 49 | 1013.4 |
| 20260504175040 | 19 | 151 | 4.8 | 19.3 | 0.00 | 0.00 | 0.00 | 49 | 1013.4 |
| 20260504174553 | 19 | 55 | 4.8 | 14.5 | 0.00 | 0.00 | 0.00 | 52 | 1013.7 |
| 20260504174046 | 19 | 5 | 3.2 | 20.9 | 0.00 | 0.00 | 0.00 | 52 | 1013.7 |
| 20260504173538 | 19 | 105 | 6.4 | 17.7 | 0.00 | 0.00 | 0.00 | 52 | 1013.9 |
| 20260504173008 | 18 | 99 | 3.2 | 14.5 | 0.00 | 0.00 | 0.00 | 53 | 1013.8 |
| 20260504172502 | 18 | 324 | 4.8 | 16.1 | 0.00 | 0.00 | 0.00 | 52 | 1013.9 |
| 20260504172055 | 18 | 57 | 6.4 | 16.1 | 0.00 | 0.00 | 0.00 | 54 | 1013.9 |
| 20260504171539 | 18 | 96 | 6.4 | 16.1 | 0.00 | 0.00 | 0.00 | 54 | 1014.0 |
| 20260504171017 | 18 | 166 | 4.8 | 16.1 | 0.00 | 0.00 | 0.00 | 54 | 1014.2 |
| 20260504170511 | 18 | 158 | 1.6 | 8.0 | 0.00 | 0.00 | 0.00 | 56 | 1014.3 |
| 20260504151053 | 16 | 297 | 3.2 | 24.1 | 0.00 | 0.00 | 0.00 | 49 | 1015.6 |
| 20260504150545 | 16 | 244 | 11.3 | 24.1 | 0.00 | 0.00 | 0.00 | 49 | 1015.6 |
| 20260504141039 | 16 | 106 | 8.0 | 24.1 | 0.00 | 0.00 | 0.00 | 48 | 1015.9 |
| 20260504140534 | 16 | 269 | 4.8 | 24.1 | 0.00 | 0.00 | 0.00 | 48 | 1016.0 |
| 20260504130547 | 15 | 128 | 4.8 | 14.5 | 0.00 | 0.00 | 0.00 | 49 | 1015.8 |
| 20260504110545 | 8 | 59 | 0.0 | 0.0 | 0.00 | 0.00 | 0.00 | 77 | 1016.7 |
| 20260504100511 | 8 | 59 | 0.0 | 0.0 | 0.00 | 0.00 | 0.00 | 76 | 1016.8 |
| 20260504090122 | 8 | 265 | 0.0 | 0.0 | 0.00 | 0.00 | 0.00 | 74 | 1017.4 |
| 20260504081518 | 9 | 265 | 0.0 | 1.6 | 0.00 | 0.00 | 0.00 | 70 | 1017.6 |
| 20260504081003 | 9 | 265 | 0.0 | 1.6 | 0.00 | 0.00 | 0.00 | 68 | 1017.6 |
| 20260504080550 | 9 | 265 | 0.0 | 1.6 | 0.00 | 0.00 | 0.00 | 67 | 1017.7 |
| 20260504050557 | 8 | 265 | 0.0 | 0.0 | 0.00 | 0.00 | 0.00 | 56 | 1018.4 |
| 20260504050016 | 8 | 265 | 0.0 | 0.0 | 0.00 | 0.00 | 0.00 | 57 | 1018.3 |
| 20260504045602 | 8 | 265 | 0.0 | 0.0 | 0.00 | 0.00 | 0.00 | 56 | 1018.4 |
| 20260504045047 | 8 | 265 | 0.0 | 0.0 | 0.00 | 0.00 | 0.00 | 57 | 1018.3 |
| 20260504044518 | 8 | 265 | 0.0 | 0.0 | 0.00 | 0.00 | 0.00 | 57 | 1018.5 |
| 20260504044057 | 8 | 265 | 0.0 | 0.0 | 0.00 | 0.00 | 0.00 | 55 | 1018.5 |
| 20260504043543 | 8 | 265 | 0.0 | 0.0 | 0.00 | 0.00 | 0.00 | 56 | 1018.4 |
| 20260504043048 | 8 | 265 | 0.0 | 0.0 | 0.00 | 0.00 | 0.00 | 55 | 1018.5 |
| 20260504042525 | 8 | 265 | 0.0 | 0.0 | 0.00 | 0.00 | 0.00 | 55 | 1018.4 |
| 20260504042010 | 8 | 265 | 0.0 | 0.0 | 0.00 | 0.00 | 0.00 | 55 | 1018.4 |
| 20260504041513 | 8 | 265 | 0.0 | 0.0 | 0.00 | 0.00 | 0.00 | 55 | 1018.4 |
| 20260504041059 | 8 | 265 | 0.0 | 0.0 | 0.00 | 0.00 | 0.00 | 55 | 1018.4 |
| 20260504040544 | 8 | 265 | 0.0 | 0.0 | 0.00 | 0.00 | 0.00 | 55 | 1018.5 |
| 20260504040003 | 8 | 265 | 0.0 | 0.0 | 0.00 | 0.00 | 0.00 | 55 | 1018.5 |
| 20260504035554 | 8 | 265 | 0.0 | 0.0 | 0.00 | 0.00 | 0.00 | 54 | 1018.5 |
| 20260504035036 | 8 | 265 | 0.0 | 0.0 | 0.00 | 0.00 | 0.00 | 53 | 1018.5 |
| 20260504034537 | 8 | 265 | 0.0 | 0.0 | 0.00 | 0.00 | 0.00 | 53 | 1018.5 |
| 20260504034022 | 9 | 265 | 0.0 | 0.0 | 0.00 | 0.00 | 0.00 | 53 | 1018.6 |
| 20260504033511 | 9 | 265 | 0.0 | 0.0 | 0.00 | 0.00 | 0.00 | 52 | 1018.6 |
| 20260504033030 | 9 | 265 | 0.0 | 0.0 | 0.00 | 0.00 | 0.00 | 53 | 1018.6 |
| 20260504032512 | 9 | 265 | 0.0 | 0.0 | 0.00 | 0.00 | 0.00 | 52 | 1018.6 |
| 20260504032101 | 9 | 265 | 0.0 | 0.0 | 0.00 | 0.00 | 0.00 | 52 | 1018.6 |
| 20260504031521 | 9 | 265 | 0.0 | 0.0 | 0.00 | 0.00 | 0.00 | 53 | 1018.7 |
| 20260504031004 | 9 | 265 | 0.0 | 0.0 | 0.00 | 0.00 | 0.00 | 51 | 1018.6 |
| 20260504030553 | 9 | 265 | 0.0 | 0.0 | 0.00 | 0.00 | 0.00 | 52 | 1018.6 |
| 20260504030052 | 9 | 265 | 0.0 | 0.0 | 0.00 | 0.00 | 0.00 | 51 | 1018.6 |
| 20260504025537 | 9 | 265 | 0.0 | 0.0 | 0.00 | 0.00 | 0.00 | 51 | 1018.7 |
| 20260504025021 | 9 | 265 | 0.0 | 0.0 | 0.00 | 0.00 | 0.00 | 51 | 1018.7 |
| 20260504024523 | 9 | 265 | 0.0 | 0.0 | 0.00 | 0.00 | 0.00 | 50 | 1018.6 |
| 20260504024008 | 9 | 265 | 0.0 | 0.0 | 0.00 | 0.00 | 0.00 | 50 | 1018.6 |
| 20260504023555 | 9 | 265 | 0.0 | 0.0 | 0.00 | 0.00 | 0.00 | 50 | 1018.7 |
| 20260504023018 | 9 | 265 | 0.0 | 0.0 | 0.00 | 0.00 | 0.00 | 50 | 1018.7 |
| 20260504022603 | 9 | 265 | 0.0 | 0.0 | 0.00 | 0.00 | 0.00 | 50 | 1018.7 |
| 20260504022048 | 9 | 265 | 0.0 | 0.0 | 0.00 | 0.00 | 0.00 | 50 | 1018.7 |
| 20260504021511 | 10 | 265 | 0.0 | 0.0 | 0.00 | 0.00 | 0.00 | 48 | 1018.6 |
| 20260504021056 | 10 | 265 | 0.0 | 0.0 | 0.00 | 0.00 | 0.00 | 49 | 1018.6 |
| 20260504020543 | 10 | 265 | 0.0 | 0.0 | 0.00 | 0.00 | 0.00 | 49 | 1018.6 |
| 20260504020040 | 10 | 265 | 0.0 | 0.0 | 0.00 | 0.00 | 0.00 | 49 | 1018.7 |
| 20260504015526 | 10 | 265 | 0.0 | 0.0 | 0.00 | 0.00 | 0.00 | 48 | 1018.7 |
| 20260504015009 | 10 | 265 | 0.0 | 0.0 | 0.00 | 0.00 | 0.00 | 48 | 1018.6 |
| 20260504014539 | 10 | 265 | 0.0 | 0.0 | 0.00 | 0.00 | 0.00 | 48 | 1018.7 |
| 20260504014017 | 10 | 265 | 0.0 | 0.0 | 0.00 | 0.00 | 0.00 | 48 | 1018.6 |
| 20260504013503 | 10 | 265 | 0.0 | 0.0 | 0.00 | 0.00 | 0.00 | 47 | 1018.6 |
| 20260504013121 | 10 | 265 | 0.0 | 0.0 | 0.00 | 0.00 | 0.00 | 47 | 1018.6 |
| 20260504012547 | 10 | 265 | 0.0 | 0.0 | 0.00 | 0.00 | 0.00 | 47 | 1018.6 |
| 20260504012035 | 10 | 265 | 0.0 | 0.0 | 0.00 | 0.00 | 0.00 | 47 | 1018.6 |
| 20260504011537 | 10 | 265 | 0.0 | 0.0 | 0.00 | 0.00 | 0.00 | 47 | 1018.6 |
| 20260504011017 | 10 | 265 | 0.0 | 0.0 | 0.00 | 0.00 | 0.00 | 46 | 1018.7 |
| 20260504010504 | 10 | 265 | 0.0 | 0.0 | 0.00 | 0.00 | 0.00 | 46 | 1018.7 |
| 20260504010027 | 10 | 265 | 0.0 | 0.0 | 0.00 | 0.00 | 0.00 | 45 | 1018.6 |
| 20260504005510 | 10 | 265 | 0.0 | 0.0 | 0.00 | 0.00 | 0.00 | 45 | 1018.6 |
| 20260504005057 | 10 | 265 | 0.0 | 0.0 | 0.00 | 0.00 | 0.00 | 45 | 1018.5 |
| 20260504004609 | 10 | 265 | 0.0 | 0.0 | 0.00 | 0.00 | 0.00 | 45 | 1018.4 |
| 20260504004043 | 10 | 265 | 0.0 | 0.0 | 0.00 | 0.00 | 0.00 | 45 | 1018.3 |
| 20260504003528 | 10 | 265 | 0.0 | 0.0 | 0.00 | 0.00 | 0.00 | 44 | 1018.3 |
| 20260504003034 | 10 | 265 | 0.0 | 0.0 | 0.00 | 0.00 | 0.00 | 44 | 1018.3 |
| 20260504002512 | 10 | 265 | 0.0 | 0.0 | 0.00 | 0.00 | 0.00 | 43 | 1018.3 |
| 20260504002101 | 11 | 265 | 0.0 | 0.0 | 0.00 | 0.00 | 0.00 | 43 | 1018.2 |
| 20260504001608 | 11 | 265 | 0.0 | 0.0 | 0.00 | 0.00 | 0.00 | 42 | 1018.3 |
| 20260504001044 | 11 | 265 | 0.0 | 0.0 | 0.00 | 0.00 | 0.00 | 42 | 1018.3 |
| 20260504000531 | 11 | 265 | 0.0 | 0.0 | 0.00 | 0.00 | 0.00 | 41 | 1018.4 |
| 20260504000050 | 11 | 265 | 0.0 | 0.0 | 0.00 | 0.00 | 0.00 | 40 | 1018.4 |
| 20260503235536 | 12 | 265 | 0.0 | 0.0 | 0.00 | 0.00 | 0.00 | 41 | 1018.3 |
| 20260503235020 | 12 | 265 | 0.0 | 1.6 | 0.00 | 0.00 | 0.00 | 39 | 1018.3 |
| 20260503234519 | 12 | 277 | 0.0 | 4.8 | 0.00 | 0.00 | 0.00 | 39 | 1018.4 |
| 20260503234001 | 12 | 277 | 0.0 | 9.7 | 0.00 | 0.00 | 0.00 | 38 | 1018.3 |
| 20260503233547 | 12 | 259 | 3.2 | 9.7 | 0.00 | 0.00 | 0.00 | 37 | 1018.4 |
| 20260503233000 | 12 | 305 | 3.2 | 9.7 | 0.00 | 0.00 | 0.00 | 36 | 1018.4 |
| 20260503232548 | 13 | 5 | 0.0 | 9.7 | 0.00 | 0.00 | 0.00 | 37 | 1018.5 |
| 20260503232031 | 13 | 286 | 3.2 | 9.7 | 0.00 | 0.00 | 0.00 | 35 | 1018.5 |
| 20260503231514 | 13 | 252 | 1.6 | 11.3 | 0.00 | 0.00 | 0.00 | 33 | 1018.4 |
| 20260503231056 | 13 | 258 | 3.2 | 11.3 | 0.00 | 0.00 | 0.00 | 34 | 1018.4 |
| 20260503230545 | 13 | 277 | 3.2 | 9.7 | 0.00 | 0.00 | 0.00 | 34 | 1018.6 |
| 20260503230104 | 13 | 201 | 3.2 | 9.7 | 0.00 | 0.00 | 0.00 | 33 | 1018.5 |
| 20260503225545 | 13 | 338 | 1.6 | 11.3 | 0.00 | 0.00 | 0.00 | 34 | 1018.6 |
| 20260503225033 | 14 | 227 | 3.2 | 11.3 | 0.00 | 0.00 | 0.00 | 35 | 1018.6 |
| 20260503224534 | 14 | 346 | 0.0 | 4.8 | 0.00 | 0.00 | 0.00 | 35 | 1018.7 |
| 20260503224015 | 14 | 117 | 0.0 | 14.5 | 0.00 | 0.00 | 0.00 | 34 | 1018.6 |
| 20260503223604 | 14 | 268 | 4.8 | 14.5 | 0.00 | 0.00 | 0.00 | 32 | 1018.7 |
| 20260503223102 | 14 | 325 | 3.2 | 16.1 | 0.00 | 0.00 | 0.00 | 33 | 1018.6 |
| 20260503222546 | 14 | 360 | 4.8 | 16.1 | 0.00 | 0.00 | 0.00 | 32 | 1018.6 |
| 20260503222031 | 14 | 216 | 3.2 | 14.5 | 0.00 | 0.00 | 0.00 | 33 | 1018.7 |
| 20260503221532 | 14 | 286 | 6.4 | 14.5 | 0.00 | 0.00 | 0.00 | 32 | 1018.7 |
| 20260503221015 | 14 | 274 | 3.2 | 8.0 | 0.00 | 0.00 | 0.00 | 33 | 1018.6 |
| 20260503220604 | 14 | 313 | 1.6 | 8.0 | 0.00 | 0.00 | 0.00 | 34 | 1018.6 |
| 20260503220121 | 14 | 50 | 1.6 | 8.0 | 0.00 | 0.00 | 0.00 | 32 | 1018.6 |
| 20260503215544 | 14 | 276 | 3.2 | 9.7 | 0.00 | 0.00 | 0.00 | 33 | 1018.6 |
| 20260503215029 | 14 | 63 | 0.0 | 14.5 | 0.00 | 0.00 | 0.00 | 32 | 1018.5 |
| 20260503214554 | 14 | 210 | 3.2 | 14.5 | 0.00 | 0.00 | 0.00 | 32 | 1018.6 |